Simultaneous Nadir Overpasses (SNOs) Predictions

Prediction of SNOs between GOES-16 and NOAA-20 Satellite Orbit:

Table of predicted SNOs for the next 14.0 days since TLE Epoch: 10/1/2022
Index Date Time (GOES-16) GOES-16 Lat,Lon NOAA-20 Lat,Lon Distance(km) Time Diff (sec)
1 10/01/2022 06:26:05 0.06, -75.19 0.02, -74.97 24.94 80
2 10/03/2022 18:26:38 -0.05, -75.20 -0.16, -75.76 63.34 80
3 10/04/2022 18:10:34 -0.05, -75.20 0.85, -71.23 453.34 80
4 10/06/2022 06:29:41 0.04, -75.21 0.35, -76.49 146.58 80
5 10/07/2022 06:13:36 0.04, -75.22 -0.66, -71.96 370.73 80
6 10/08/2022 18:32:54 -0.04, -75.24 -0.49, -77.28 232.12 80
7 10/09/2022 18:16:49 -0.04, -75.26 0.53, -72.75 285.85 80
8 10/11/2022 06:35:56 0.04, -75.28 0.67, -78.01 312.15 80
9 10/12/2022 06:17:12 0.04, -75.30 -0.35, -73.49 206.07 80
10 10/13/2022 18:39:09 -0.03, -75.32 -0.79, -78.80 395.87 80
11 10/14/2022 18:23:04 -0.03, -75.34 0.18, -74.26 122.62 80
